When you browse on this site, cookies collect data to enhance your experience and personalize the content and advertising you see.
Visit our Privacy Policy to learn more. By continuing to use the site, you agree to this use of cookies and data.
  • în România
  • Lista ţărilor
  • Pe 7 zile
  • Temperatura apei
  • Hartă satelitară
  • Meteo pe hartă
  • Widget-uri
  • user-avatar
    Intrare

    Meteo pe oră la Kamarang

    Astăzi, 18 Decembrie, Marţi

    Timp Temperatura Precipitaţii Vânt Presiune Umiditate
    00:00 +19°C° 0 mm 0 m/s 714 mmHg 94%
    01:00 +19°C° 0 mm 0 m/s 714 mmHg 95%
    02:00 +19°C° 0 mm 0 m/s 714 mmHg 95%
    03:00 +19°C° 0.1 mm 0 m/s 714 mmHg 95%
    04:00 +19°C° 0.1 mm 0 m/s 714 mmHg 95%
    05:00 +19°C° 0.1 mm 0 m/s 714 mmHg 95%
    06:00 +20°C° 0 mm 0 m/s 714 mmHg 92%
    07:00 +21°C° 0 mm 0 m/s 715 mmHg 89%
    08:00 +22°C° 0 mm 0 m/s 715 mmHg 85%
    09:00 +24°C° 0 mm 0 m/s 715 mmHg 77%
    10:00 +27°C° 0 mm 1 m/s 715 mmHg 68%
    11:00 +29°C° 0 mm 1 m/s 715 mmHg 59%
    12:00 +30°C° 0.3 mm 1 m/s 715 mmHg 60%
    13:00 +30°C° 0.3 mm 1 m/s 714 mmHg 61%
    14:00 +30°C° 0.3 mm 2 m/s 713 mmHg 62%
    15:00 +29°C° 0.9 mm 2 m/s 713 mmHg 71%
    16:00 +27°C° 0.9 mm 2 m/s 712 mmHg 80%
    17:00 +26°C° 0.9 mm 1 m/s 712 mmHg 89%
    18:00 +25°C° 0.3 mm 1 m/s 712 mmHg 92%
    19:00 +24°C° 0.3 mm 1 m/s 713 mmHg 95%
    20:00 +20°C° 0.3 mm 0 m/s 713 mmHg 99%
    21:00 +20°C° 0 mm 0 m/s 714 mmHg 99%
    22:00 +20°C° 0 mm 0 m/s 714 mmHg 99%
    23:00 +20°C° 0 mm 0 m/s 714 mmHg 99%

    Mâine, 19 Decembrie, Miercuri

    Timp Temperatura Precipitaţii Vânt Presiune Umiditate
    00:00 +20°C° 0 mm 0 m/s 714 mmHg 99%
    01:00 +20°C° 0 mm 0 m/s 714 mmHg 99%
    02:00 +20°C° 0 mm 0 m/s 713 mmHg 99%
    03:00 +20°C° 0 mm 0 m/s 713 mmHg 98%
    04:00 +19°C° 0 mm 0 m/s 713 mmHg 98%
    05:00 +19°C° 0 mm 0 m/s 713 mmHg 98%
    06:00 +20°C° 0 mm 0 m/s 714 mmHg 96%
    07:00 +21°C° 0 mm 0 m/s 714 mmHg 93%
    08:00 +23°C° 0 mm 1 m/s 715 mmHg 91%
    09:00 +25°C° 0.1 mm 1 m/s 715 mmHg 83%
    10:00 +26°C° 0.1 mm 1 m/s 715 mmHg 76%
    11:00 +28°C° 0.1 mm 1 m/s 715 mmHg 69%
    12:00 +29°C° 0.5 mm 1 m/s 714 mmHg 69%
    13:00 +29°C° 0.5 mm 2 m/s 713 mmHg 69%
    14:00 +30°C° 0.5 mm 2 m/s 712 mmHg 69%
    15:00 +28°C° 1 mm 2 m/s 712 mmHg 77%
    16:00 +27°C° 1 mm 1 m/s 711 mmHg 85%
    17:00 +25°C° 1 mm 1 m/s 711 mmHg 93%
    18:00 +24°C° 0.5 mm 1 m/s 712 mmHg 95%
    19:00 +23°C° 0.5 mm 1 m/s 712 mmHg 97%
    20:00 +23°C° 0.5 mm 1 m/s 713 mmHg 99%
    21:00 +23°C° 0.3 mm 1 m/s 713 mmHg 99%
    22:00 +23°C° 0.3 mm 1 m/s 713 mmHg 99%
    23:00 +21°C° 0.3 mm 0 m/s 714 mmHg 99%

    Poimâine, 20 Decembrie, Joi

    Timp Temperatura Precipitaţii Vânt Presiune Umiditate
    00:00 +22°C° 0.3 mm 1 m/s 713 mmHg 99%
    01:00 +22°C° 0.3 mm 1 m/s 713 mmHg 99%
    02:00 +22°C° 0.3 mm 1 m/s 713 mmHg 99%
    03:00 +22°C° 0 mm 1 m/s 713 mmHg 99%
    04:00 +20°C° 0 mm 0 m/s 713 mmHg 99%
    05:00 +20°C° 0 mm 0 m/s 712 mmHg 99%
    06:00 +22°C° 0 mm 1 m/s 713 mmHg 97%
    07:00 +23°C° 0 mm 1 m/s 714 mmHg 96%
    08:00 +23°C° 0 mm 1 m/s 714 mmHg 94%
    09:00 +25°C° 0.1 mm 1 m/s 714 mmHg 85%
    10:00 +27°C° 0.1 mm 1 m/s 715 mmHg 76%
    11:00 +28°C° 0.1 mm 1 m/s 715 mmHg 67%
    12:00 +29°C° 0.3 mm 2 m/s 714 mmHg 65%
    13:00 +30°C° 0.3 mm 2 m/s 713 mmHg 63%
    14:00 +30°C° 0.3 mm 2 m/s 712 mmHg 60%
    15:00 +29°C° 0.6 mm 2 m/s 711 mmHg 66%
    16:00 +28°C° 0.6 mm 2 m/s 711 mmHg 71%
    17:00 +27°C° 0.6 mm 2 m/s 711 mmHg 77%
    18:00 +25°C° 0.2 mm 1 m/s 711 mmHg 83%
    19:00 +24°C° 0.2 mm 1 m/s 712 mmHg 90%
    20:00 +22°C° 0.2 mm 1 m/s 712 mmHg 96%
    21:00 +22°C° 0.1 mm 1 m/s 713 mmHg 97%
    22:00 +22°C° 0.1 mm 1 m/s 713 mmHg 97%
    23:00 +22°C° 0.1 mm 1 m/s 713 mmHg 98%

    21 Decembrie, Vineri

    Timp Temperatura Precipitaţii Vânt Presiune Umiditate
    00:00 +22°C° 0.1 mm 1 m/s 713 mmHg 98%
    01:00 +22°C° 0.1 mm 1 m/s 712 mmHg 98%
    02:00 +21°C° 0.1 mm 1 m/s 712 mmHg 99%
    03:00 +21°C° 0.1 mm 1 m/s 712 mmHg 99%
    04:00 +21°C° 0.1 mm 1 m/s 712 mmHg 99%
    05:00 +21°C° 0.1 mm 1 m/s 712 mmHg 99%
    06:00 +21°C° 0 mm 1 m/s 713 mmHg 96%
    07:00 +22°C° 0 mm 1 m/s 713 mmHg 93%
    08:00 +23°C° 0 mm 1 m/s 714 mmHg 90%
    09:00 +24°C° 0.1 mm 1 m/s 714 mmHg 81%
    10:00 +26°C° 0.1 mm 1 m/s 714 mmHg 72%
    11:00 +28°C° 0.1 mm 1 m/s 714 mmHg 63%
    12:00 +28°C° 0.1 mm 2 m/s 713 mmHg 61%
    13:00 +29°C° 0.1 mm 2 m/s 713 mmHg 59%
    14:00 +30°C° 0.1 mm 2 m/s 712 mmHg 57%
    15:00 +29°C° 0.1 mm 2 m/s 711 mmHg 60%
    16:00 +28°C° 0.1 mm 2 m/s 711 mmHg 63%
    17:00 +28°C° 0.1 mm 2 m/s 711 mmHg 66%
    18:00 +26°C° 0 mm 1 m/s 711 mmHg 75%
    19:00 +24°C° 0 mm 1 m/s 712 mmHg 84%
    20:00 +22°C° 0 mm 1 m/s 712 mmHg 93%
    21:00 +22°C° 0 mm 1 m/s 713 mmHg 94%
    22:00 +21°C° 0 mm 1 m/s 713 mmHg 96%
    23:00 +21°C° 0 mm 1 m/s 713 mmHg 97%

    22 Decembrie, Sâmbătă

    Timp Temperatura Precipitaţii Vânt Presiune Umiditate
    00:00 +19°C° 0.1 mm 0 m/s 713 mmHg 98%
    01:00 +19°C° 0.1 mm 0 m/s 713 mmHg 98%
    02:00 +19°C° 0.1 mm 0 m/s 712 mmHg 98%
    03:00 +19°C° 0 mm 0 m/s 712 mmHg 98%
    04:00 +19°C° 0 mm 0 m/s 712 mmHg 98%
    05:00 +18°C° 0 mm 0 m/s 712 mmHg 98%
    06:00 +19°C° 0 mm 0 m/s 713 mmHg 94%
    07:00 +20°C° 0 mm 0 m/s 714 mmHg 90%
    08:00 +23°C° 0 mm 1 m/s 714 mmHg 87%
    09:00 +24°C° 0.1 mm 1 m/s 714 mmHg 78%
    10:00 +26°C° 0.1 mm 1 m/s 714 mmHg 69%
    11:00 +28°C° 0.1 mm 1 m/s 714 mmHg 59%
    12:00 +28°C° 0 mm 1 m/s 713 mmHg 57%
    13:00 +29°C° 0 mm 2 m/s 713 mmHg 54%
    14:00 +30°C° 0 mm 2 m/s 712 mmHg 51%
    15:00 +29°C° 0 mm 2 m/s 712 mmHg 55%
    16:00 +28°C° 0 mm 1 m/s 711 mmHg 59%
    17:00 +28°C° 0 mm 1 m/s 711 mmHg 63%
    18:00 +26°C° 0 mm 1 m/s 711 mmHg 72%
    19:00 +24°C° 0 mm 1 m/s 712 mmHg 80%
    20:00 +20°C° 0 mm 0 m/s 712 mmHg 89%
    21:00 +20°C° 0 mm 0 m/s 713 mmHg 90%
    22:00 +20°C° 0 mm 0 m/s 713 mmHg 92%
    23:00 +19°C° 0 mm 0 m/s 713 mmHg 93%

    23 Decembrie, Duminică

    Timp Temperatura Precipitaţii Vânt Presiune Umiditate
    00:00 +19°C° 0 mm 0 m/s 713 mmHg 95%
    01:00 +19°C° 0 mm 0 m/s 713 mmHg 96%
    02:00 +19°C° 0 mm 0 m/s 712 mmHg 98%
    03:00 +19°C° 0 mm 0 m/s 712 mmHg 98%
    04:00 +18°C° 0 mm 0 m/s 712 mmHg 98%
    05:00 +18°C° 0 mm 0 m/s 713 mmHg 98%
    06:00 +19°C° 0 mm 0 m/s 713 mmHg 93%
    07:00 +20°C° 0 mm 0 m/s 714 mmHg 89%
    08:00 +21°C° 0 mm 0 m/s 714 mmHg 84%
    09:00 +24°C° 0 mm 1 m/s 714 mmHg 78%
    10:00 +26°C° 0 mm 1 m/s 714 mmHg 72%
    11:00 +27°C° 0 mm 1 m/s 714 mmHg 66%
    12:00 +28°C° 0 mm 1 m/s 713 mmHg 62%
    13:00 +29°C° 0 mm 1 m/s 713 mmHg 58%
    14:00 +30°C° 0 mm 1 m/s 712 mmHg 53%
    15:00 +30°C° 0.1 mm 1 m/s 711 mmHg 59%
    16:00 +29°C° 0.1 mm 1 m/s 711 mmHg 64%
    17:00 +28°C° 0.1 mm 1 m/s 711 mmHg 69%
    18:00 +26°C° 0.3 mm 1 m/s 711 mmHg 78%
    19:00 +24°C° 0.3 mm 1 m/s 712 mmHg 87%
    20:00 +22°C° 0.3 mm 1 m/s 712 mmHg 97%
    21:00 +22°C° 0.4 mm 1 m/s 713 mmHg 97%
    22:00 +22°C° 0.4 mm 1 m/s 713 mmHg 98%
    23:00 +22°C° 0.4 mm 1 m/s 713 mmHg 98%
    Arată mai mult